GW6987 Weather Reports


time (UTC)temp
C
wind
direction
speed
KPH
gust
KPH
rain 1hr
cm
rain 24hr
cm
rain mn
cm
humidity
%
barometer
mb
20260506220053 22 23 4.8 12.9 0.00 0.00 0.00 61
20260506213142 21 338 4.8 16.1 0.00 0.00 0.00 66
20260506210053 21 338 3.2 12.9 0.00 0.00 0.00 67
20260506203117 21 338 4.8 14.5 0.00 0.00 0.00 65
20260506200053 21 45 4.8 12.9 0.00 0.00 0.00 65
20260506193053 20 338 4.8 14.5 0.00 0.00 0.00 66
20260506190053 19 338 3.2 16.1 0.00 0.00 0.00 70
20260506183053 17 23 3.2 9.7 0.00 0.00 0.00 74
20260506180053 16 338 3.2 11.3 0.00 0.00 0.00 74
20260506173053 16 338 4.8 12.9 0.00 0.00 0.00 74
20260506170052 15 338 3.2 9.7 0.00 0.00 0.00 77
20260506163052 14 0 3.2 8.0 0.00 0.00 0.00 83
20260506160116 14 0 1.6 6.4 0.00 0.00 0.00 89
20260506153052 11 270 1.6 6.4 0.00 0.00 0.00 95
20260506150052 10 225 1.6 8.0 0.00 0.00 0.00 96
20260506143116 8 180 4.8 9.7 0.00 0.00 0.00 96
20260506140052 8 203 3.2 9.7 0.00 0.00 0.00 96
20260506133052 8 248 1.6 9.7 0.00 0.00 0.00 96
20260506130051 8 225 1.6 6.4 0.00 0.00 0.00 95
20260506123051 8 225 1.6 6.4 0.00 0.00 0.00 95
20260506120052 8 0.0 0.0 0.00 0.00 0.00 95
20260506113053 8 0.0 0.0 0.00 0.00 0.00 95
20260506110053 8 0.0 0.0 0.00 0.00 0.00 95
20260506103053 8 0.0 0.0 0.00 0.00 0.00 95
20260506100117 8 0.0 0.0 0.00 0.00 0.00 95
20260506093117 8 0.0 0.0 0.00 0.00 0.00 95
20260506090053 8 0.0 0.0 0.00 0.00 0.00 95
20260506083053 8 0.0 0.0 0.00 0.00 0.00 94
20260506073052 9 0.0 0.0 0.00 0.00 0.00 95
20260506050127 9 0.0 0.0 0.00 0.00 0.00 94
20260506043053 9 0 1.6 1.6 0.00 0.00 0.03 95
20260506040742 10 0.0 3.2 0.00 0.00 0.00 94
20260506040052 10 0.0 3.2 0.00 0.00 0.03 94
20260506033052 10 0.0 3.2 0.00 0.00 0.00 94
20260506030052 10 0.0 4.8 0.00 0.00 0.00 94
20260506023052 10 0.0 4.8 0.00 0.00 0.00 93
20260506020051 10 0.0 3.2 0.00 0.00 0.00 93
20260506013051 10 248 1.6 4.8 0.00 0.00 0.00 92
20260506010051 10 0.0 3.2 0.00 0.00 0.00 92
20260506003051 10 248 1.6 6.4 0.00 0.00 0.00 92
20260506000115 10 0 1.6 6.4 0.00 0.00 0.00 92
20260505233051 11 0 1.6 4.8 0.00 0.00 0.00 91
20260505230051 11 338 1.6 6.4 0.00 0.00 0.00 91